Location: ??
(34.7707°N, 135.6540°E)
Time: 04:50:23
(UTC+00:00)

Resurs 01 Rocket - Pass Details

Date: 09 April 2020
Orbit: 634 x 644 km, 98.0° (Epoch: 05 June)

Event Time Altitude Azimuth Distance (km) Brightness Sun altitude
Exits shadow 12:47:28 13° 287° (WNW) 1,820 4.5 -37.3°
Drops below altitude 10° 12:48:36 10° 301° (WNW) 2,024 4.9 -37.4°
Sets 12:51:45 0° 325° (NW) 2,939 6.0 -37.9°
